User: anonymous   Login
Location: Newark
(49.8753°N, 23.0797°E)
Time: 03:35:58
(UTC+00:00)
Language:

X-37B - Orbit

View from above orbital plane
View from above orbital plane
View from above satellite
View from above satellite

Ground track
Ground track

The orbit data is extracted from the following two-line orbital elements,

1 45606U 20029A   21182.84990757 0.00000000  00000-0  00000-0 0    00
2 45606  45.0420 130.6521 0006414 119.8373 240.1623 15.60030099    04
Epoch (UTC): 01 July 2021 20:23:52
Eccentricity: 0.0006414
inclination: 45.0420°
perigee height: 383 km
apogee height: 392 km
right ascension of ascending node: 130.6521°
argument of perigee: 119.8373°
revolutions per day: 15.60030099
mean anomaly at epoch: 240.1623°
orbit number at epoch: 0

The dashed part of the orbit path shows where the satellite is in the earth's shadow,  

DLR